Home > Weather > Wernigerode > Past weeks

Flag for Germany Past Weather in Wernigerode, Saxony-Anhalt, Germany — Yesterday and Last 2 Weeks

Now
75 °F

Partly sunny.


Feels Like: 78 °F
Forecast: 49 / 62 °F
Wind: 10 mph from Southwest

Location: Braunschweig Wolfsburg

Current Time: Jul 1, 2016 at 7:06:06 PM

Latest Report: Jul 1, 2016 at 6:20 PM


Visibility: N/A

Pressure: 29.89 "Hg

Humidity: 54%

Dew Point: 57 °F

Location of WernigerodeLocation

Past Weather in Wernigerode — Graph

°F

Wernigerode Temperature Yesterday

Maximum temperature yesterday: 72 °F (at 2:20 PM)
Minimum temperature yesterday: 55 °F (at 5:50 AM)
Average temperature yesterday: 66 °F

High & Low Weather Summary for the Past Weeks

 TemperatureHumidityPressure
High90 °F (Jun 23, 3:50 PM)100% (Jun 17, 7:50 AM)30.21 "Hg (Jun 17, 7:50 AM)
Low50 °F (Jun 20, 6:50 AM)38% (Jun 23, 3:50 PM)29.56 "Hg (Jun 17, 5:20 AM)
Average69 °F66%29.99 "Hg
* Reported Jun 16 5:20 PM — Jul 1 5:50 PM, Wernigerode, Weather by CustomWeather, © 2016

Note: Actual official high and low records may vary slightly from our data, if they occured in-between our weather recording intervals... More about our weather records

Advertising

Wernigerode Weather History for the Previous 24 Hours

Scroll right to see more
 ConditionsComfort  
Time TempWeatherWind HumidityBarometerVisibility
5:50 PM
Fri, Jul 1
75 °FPartly sunny.12 mph54%29.89 "HgN/A
5:20 PM77 °FPartly sunny.13 mph51%29.92 "HgN/A
4:50 PM75 °FBroken clouds.13 mph57%29.92 "HgN/A
4:20 PM75 °FPartly sunny.15 mph54%29.92 "HgN/A
3:50 PM75 °FBroken clouds.9 mph57%29.92 "HgN/A
3:20 PM73 °FBroken clouds.10 mph61%29.92 "HgN/A
2:50 PM73 °FPartly sunny.10 mph65%29.92 "HgN/A
2:20 PM73 °FBroken clouds.10 mph61%29.92 "HgN/A
1:50 PM73 °FPartly sunny.13 mph65%29.95 "HgN/A
1:20 PM72 °FMostly cloudy.13 mph69%29.95 "HgN/A
12:50 PM73 °FCloudy.12 mph61%29.92 "HgN/A
12:20 PM73 °FPartly sunny.13 mph61%29.95 "HgN/A
11:50 AM73 °FBroken clouds.14 mph61%29.95 "HgN/A
11:20 AM72 °FCloudy.13 mph65%29.95 "HgN/A
10:20 AM70 °FPassing clouds.12 mph69%29.95 "HgN/A
9:50 AM68 °FSunny.13 mph73%29.95 "Hg10 mi
9:20 AM68 °FSunny.12 mph73%29.95 "Hg10 mi
8:20 AM68 °FSunny.12 mph73%29.92 "Hg10 mi
7:50 AM68 °FSunny.8 mph73%29.92 "Hg10 mi
7:20 AM68 °FSunny.9 mph69%29.92 "Hg10 mi
6:50 AM66 °FSunny.9 mph73%29.92 "Hg10 mi
6:20 AM64 °FSunny.8 mph78%29.92 "Hg10 mi
10:50 PM
Thu, Jun 30
61 °FClear.6 mph88%29.95 "Hg10 mi
10:20 PM64 °FBroken clouds.5 mph78%29.95 "HgN/A
9:50 PM64 °FBroken clouds.No wind78%29.92 "HgN/A
9:20 PM68 °FSunny.5 mph64%29.92 "Hg10 mi
8:50 PM68 °FSunny.6 mph64%29.92 "Hg10 mi
8:20 PM68 °FSunny.6 mph64%29.92 "Hg10 mi
7:50 PM68 °FSunny.8 mph64%29.92 "Hg10 mi
7:20 PM70 °FSunny.8 mph60%29.92 "Hg10 mi
Weather by CustomWeather, © 2016

See weather overviewHow to use our weather pages